www.pogodaiklimat.ru

Погода и климат >> Архив погоды >> Индия >> Kozhikode


ПОГОДА в Kozhikode

  • Прогноз погоды в Kozhikode
  • Монитор погоды в Kozhikode
  • Климат города

АРХИВ ПОГОДЫ в Kozhikode

Время (UTC), дата Ветер
(напр.,м/с)
 
Видим.   Явления Облачность Т
(С)
Тd
(С)
f
(%)
Тe
(С)
Тes
(С)
Комфортность P
(гПа)
Po
(гПа)
Тmin
(С)
Tmax
(С)
R
(мм)
R24
(мм)
S
(см)
09 10.12 штиль 0 10 км 8/3 600 м
[Sc diur, vesp Ac trans Ci sp]
+34.0 +25.0 59 +47 +54 опасность
перегрева
1010.0 1010.0
12 10.12 штиль 0 10 км 8/3 600 м
[Sc diur, vesp Ac trans Ci sp]
+31.4 +25.2 70 +45 +46 опасность
перегрева
1009.6 1010.0 +35.2
15 10.12 штиль 0 4000 м 8/3 600 м
[Sc diur, vesp Ac trans Ci sp]
+28.4 +23.8 76 +39 +39 очень
душно
1011.5 1012.0
18 10.12 штиль 0 4000 м 6/1 600 м
[Sc diur, vesp Ac trans Ci sp]
+27.2 +24.0 83 +38 +38 очень
душно
1011.7 1012.0
21 10.12 штиль 0 4000 м 6/3 600 м
[Sc diur, vesp Ac trans Ci sp]
+26.2 +23.6 86 +36 +36 очень
душно
1010.3 1010.0
00 11.12 штиль 0 4000 м 5/1 600 м
[Sc diur, vesp Ac trans Ci sp]
+25.2 +23.1 88 +34 +34 очень
душно
1010.6 1011.0
03 11.12 штиль 0 10 км 3/0
[Ci sp]
+26.0 +23.1 84 +35 +39 очень
душно
1013.2 1013.0 +24.5 +35.2
06 11.12 штиль 0 10 км 3/1 600 м
[Sc diur, vesp Ci sp]
+31.0 +22.5 61 +41 +57 опасность
перегрева
1013.2 1013.0
09 11.12 штиль 0 10 км ясно +33.4 +24.3 59 +46 +60 опасность
перегрева
1010.2 1010.0
12 11.12 штиль 0 10 км ясно +31.0 +25.3 72 +45 +46 опасность
перегрева
1010.8 1011.0 +34.2
15 11.12 штиль 0 4000 м 8/3 600 м
[Sc diur, vesp Ac trans Ci sp]
+28.4 +23.8 76 +39 +39 очень
душно
1012.2 1012.0
18 11.12 штиль 0 4000 м 8/5 600 м
[Sc diur, vesp Ac trans]
+27.4 +23.9 81 +38 +38 очень
душно
1013.1 1013.0
21 11.12 штиль 0 4000 м 6/4 600 м
[Sc diur, vesp Ac trans Ci sp]
+26.2 +23.6 86 +36 +36 очень
душно
1011.6 1012.0
00 12.12 штиль 0 4000 м 5/1 600 м
[Sc]
+25.2 +23.9 93 +35 +35 очень
душно
1011.6 1012.0
03 12.12 штиль 0 10 км 3/1 600 м
[Sc diur, vesp Ci sp]
+26.4 +22.9 81 +35 +39 очень
душно
1014.2 1014.0 +24.8 +34.2
06 12.12 штиль 0 10 км 1/1 600 м
[Sc diur, vesp]
+33.0 +24.5 61 +46 +63 опасность
перегрева
1013.8 1014.0
09 12.12 штиль 0 10 км ясно +34.2 +23.9 55 +46 +60 опасность
перегрева
1010.8 1011.0
12 12.12 штиль 0 10 км ясно +30.4 +24.1 69 +42 +43 опасность
перегрева
1011.3 1011.0 +35.2
15 12.12 штиль 0 4000 м ясно +28.0 +23.3 76 +38 +38 очень
душно
1013.5 1014.0
18 12.12 штиль 0 4000 м ясно +26.4 +23.2 83 +36 +36 очень
душно
1013.6 1014.0
21 12.12 штиль 0 4000 м 4/1 600 м
[Sc diur, vesp Ac trans Ci sp]
+26.0 +23.1 84 +35 +35 очень
душно
1012.5 1013.0
00 13.12 штиль 0 4000 м 9/4 600 м
[Sc diur, vesp Ac trans Ci sp]
+25.6 +22.6 84 +34 +34 очень
душно
1012.8 1013.0
03 13.12 штиль 0 10 км ясно +25.8 +22.9 84 +34 +39 очень
душно
1015.0 1015.0 +24.5 +35.2
06 13.12 штиль 0 10 км 3/1 600 м
[Sc diur, vesp Ci fib]
+32.4 +21.8 54 +41 +57 опасность
перегрева
1014.1 1014.0
09 13.12 штиль 0 10 км 3/1 600 м
[Sc diur, vesp Ci sp]
+35.0 +23.6 52 +46 +59 опасность
перегрева
1010.9 1011.0
12 13.12 штиль 0 10 км 4/1 600 м
[Sc diur, vesp Ci sp]
+31.4 +23.6 63 +42 +43 опасность
перегрева
1010.9 1011.0 +36.1
15 13.12 штиль 0 4000 м 8/3 600 м
[Sc diur, vesp Ac trans Ci sp]
+28.0 +23.7 77 +38 +38 очень
душно
1013.4 1013.0
18 13.12 штиль 0 4000 м 5/3 600 м
[Sc diur, vesp Ac trans Ci sp]
+26.8 +24.2 86 +37 +37 очень
душно
1013.5 1014.0
21 13.12 штиль 0 4000 м 5/3 600 м
[Sc diur, vesp Ac trans Ci sp]
+26.0 +23.1 84 +35 +35 очень
душно
1012.1 1012.0
00 14.12 штиль 0 4000 м 4/1 600 м
[Sc diur, vesp Ci sp]
+25.6 +22.6 84 +34 +34 очень
душно
1012.4 1012.0
03 14.12 штиль 0 10 км 3/1 600 м
[Sc diur, vesp Ci sp]
+26.4 +24.4 89 +37 +41 очень
душно
1014.3 1014.0 +25.0 +36.1
06 14.12 штиль 0 10 км ясно +32.0 +23.3 60 +43 +61 опасность
перегрева
1014.1 1014.0
09 14.12 штиль 0 10 км ясно +34.4 +23.8 54 +46 +60 опасность
перегрева
1011.1 1011.0
12 14.12 штиль 0 10 км 1/1 600 м
[Sc diur, vesp]
+31.4 +22.0 57 +40 +41 очень
душно
1010.4 1010.0 +35.2
15 14.12 штиль 0 4000 м 1/0
[Ac trans]
+28.2 +21.3 66 +36 +36 очень
душно
1012.8 1013.0
18 14.12 штиль 0 4000 м ясно +26.4 +21.9 76 +34 +34 очень
душно
1012.8 1013.0
21 14.12 штиль 0 4000 м 3/1 600 м
[Sc diur, vesp Ac trans]
+25.4 +21.8 80 +33 +33 очень
душно
1011.6 1012.0
00 15.12 штиль 0 4000 м ясно +24.4 +21.4 83 +31 +31 очень
душно
1011.6 1012.0
03 15.12 штиль 0 10 км 3/1 600 м
[Sc diur, vesp Ci fib]
+25.6 +22.3 82 +33 +37 очень
душно
1013.4 1013.0 +23.9 +35.2
06 15.12 штиль 0 10 км ясно +33.0 +22.9 55 +43 +62 опасность
перегрева
1012.8 1013.0
09 15.12 штиль 0 10 км 4/1 600 м
[Sc diur, vesp Ci sp]
+34.8 +23.7 53 +46 +58 опасность
перегрева
1009.8 1010.0
12 15.12 штиль 0 10 км 4/1 600 м
[Sc diur, vesp Ci sp]
+32.4 +23.2 58 +43 +43 опасность
перегрева
1009.9 1010.0 +36.0
15 15.12 штиль 0 4000 м 4/1 600 м
[Sc diur, vesp Ci sp]
+27.8 +23.7 78 +38 +38 очень
душно
1013.1 1013.0
18 15.12 штиль 0 4000 м 4/1 600 м
[Sc diur, vesp Ci sp]
+26.4 +23.6 85 +36 +36 очень
душно
1012.9 1013.0
21 15.12 штиль 0 4000 м 4/1 600 м
[Sc diur, vesp Ci sp]
+25.6 +23.3 87 +34 +34 очень
душно
1011.8 1012.0
00 16.12 штиль 0 4000 м 3/1 600 м
[Sc diur, vesp Ci sp]
+25.0 +22.0 83 +32 +32 очень
душно
1012.0 1012.0
03 16.12 штиль 0 10 км 10/3 600 м
[Sc diur, vesp Ac trans Ci sp]
+26.4 +23.1 82 +35 +37 очень
душно
1014.1 1014.0 +24.0 +36.4
06 16.12 штиль 0 10 км 6/3 600 м
[Sc diur, vesp Ac trans Ci sp]
+30.0 +18.6 50 +35 +45 очень
душно
1013.5 1014.0
09 16.12 штиль 0 10 км 3/0 600 м
[Ci sp]
+34.6 +22.1 48 +43 +57 опасность
перегрева
1009.7 1010.0
12 16.12 штиль 0 10 км 4/1 600 м
[Sc diur, vesp Ci sp]
+31.0 +22.2 60 +40 +41 очень
душно
1010.0 1010.0 +35.2
15 16.12 штиль 0 4000 м 3/0
[Ci sp]
+27.0 +22.6 77 +36 +36 очень
душно
1011.6 1012.0
18 16.12 штиль 0 4000 м 3/0
[Ci sp]
+26.4 +22.9 81 +35 +35 очень
душно
1013.0 1013.0
21 16.12 штиль 0 4000 м 3/0
[Ci sp]
+25.6 +23.3 87 +34 +34 очень
душно
1011.8 1012.0
00 17.12 штиль 0 4000 м 3/0
[Ci sp]
+25.0 +22.9 88 +33 +33 очень
душно
1011.5 1012.0
03 17.12 В 1 10 км 5/1 600 м
[Sc diur, vesp Ac trans Ci sp]
+24.4 +20.7 80 +30 +33 очень
душно
1013.6 1014.0 +23.5 +35.2
06 17.12 штиль 0 10 км 8/3 600 м
[Sc diur, vesp Ac As Ci sp]
+31.0 +21.2 56 +39 +47 очень
душно
1013.3 1013.0

 

Местоположение метеостанции Kozhikode (Kerala, Индия): широта 11.25 долгота 75.78 высота над уровнем моря 5 м.

В архиве по умолчанию представлена погода в Kozhikode за последнюю неделю. Архивные данные за месяц целиком и за предыдущие месяцы, начиная с января 2011 года, Вы можете получить, выбрав интересующий диапазон дат из раскрывающегося списка и нажав кнопку "Ввод!".


*Определитесь, кто Вы:
робот инопланетянин человек

Внимание! Время в таблицах - всемирное. Для получения местного времени необходимо прибавить поправку, которая в Kozhikode равна 5.5 ч.

Смотрите также архив погоды в соседних городах и на ближайших метеорологических станциях:

Погода в Karipur (Kerala, Индия) (23 км)
Погода в Cannanore (Kerala, Индия) (81 км)
Погода в Thrissur (Kerala, Индия) (94 км)
Погода в Udhagamandalam (Tamil Nadu, Индия) (105 км)
Погода в Palakkad (Kerala, Индия) (109 км)
Погода в Coonoor (Tamil Nadu, Индия) (112 км)
Погода в Madikeri (Karnataka, Индия) (130 км)
Погода в Kochi (Kerala, Индия) (140 км)
Погода в Coimbatore (Tamil Nadu, Индия) (141 км)
Погода в Chamarajnagar (Karnataka, Индия) (146 км)

Пояснения к столбцам:

Ветер - указаны скорость ветра в м/с - средняя за 10 мин, порывы в срок и между сроками (в фигурных скобках) и направление, откуда дует ветер: С - северный, СВ - северо-восточный, В - восточный, ЮВ - юго-восточный, Ю - южный, ЮЗ - юго-западный, З - западный, СЗ - северо-западный.
Видимость - горизонтальная дальность видимости в метрах или километрах. При видимости от 1 до 10 км при отсутствии осадков обычно наблюдается дымка, при ухудшении видимости до 1 км и менее - туман. В сухую погоду видимость может ухудшаться дымом, пылью или мглою.
Явления - указаны атмосферные явления, наблюдавшиеся в срок или в последний час перед сроком; фигурными скобками обозначены явления, наблюдавшиеся между сроками (за 1-3 часа до срока); квадратными скобками обозначены град или гололедные отложения с указанием их диаметра в мм.
Облачность - указаны через наклонную черту общая и нижняя облачность в баллах и высота нижней границы облаков в метрах; квадратными скобками обозначены формы облаков: Ci - перистые, Cs - перисто-слоистые, Cc - перисто-кучевые, Ac - высококучевые, As - высокослоистые, Sc - слоисто-кучевые, Ns - слоисто-дождевые, Cu - кучевые, Cb - кучево-дождевые. Подробнее классификацию облаков см. в Атласе облаков (PDF).
T - Температура воздуха - температура, измеренная на высоте 2 м над землей.
Td - Температура точки росы - температура, при понижении до которой содержащийся в воздухе водяной пар достигнет насыщения.
f - Относительная влажность воздуха - влажноcть воздуха, измеренная на высоте 2 м над землей.
Te - Эффективная температура - температура, которую ощущает одетый по сезону человек в тени. Характеристика душности погоды. При расчете учитывается влияние влажности воздуха и скорости ветра на теплоощущения человека.
Tes - Эффективная температура на солнце - температура, которую ощущает человек, с поправкой на солнечный нагрев. Характеристика знойности погоды. Зависит от высоты солнца над горизонтом, облачности и скорости ветра. Ночью, в пасмурную погоду, а также при ветре 12 м/с и более поправка равна нулю.
P - Атмосферное давление - приведенное к уровню моря атмосферное давление.
Po - Атмосферное давление - измеренное на уровне метеостанции атмосферное давление.
Tmin - Минимальная температура - минимум температуры воздуха на высоте 2 м над землей.
Tmax - Максимальная температура - максимум температуры воздуха на высоте 2 м над землей.
R - Количество осадков - Количество выпавших осадков за период времени, мм. При наведении курсора мыши на число - период времени, за который выпало указанное количество осадков.
R24 - Количество осадков - Количество выпавших осадков за 24 часа, мм.
S - Снежный покров - Высота снежного покрова, см. При наведении курсора мыши на число - состояние снежного покрова и степень покрытия местности в баллах.